Weather History for Benton Harbor, MI

Change the Weather History Date:

Saturday, October 20, 2012

  Actual Average Record
Temperature  
Mean Temperature 50 °F -  
Max Temperature 53 °F 59 °F 82 °F (2003)
Min Temperature 46 °F 38 °F 23 °F (1988)
Degree Days  
Heating Degree Days 16    
Moisture  
Dew Point 45 °F    
Average Humidity 84    
Maximum Humidity 96    
Minimum Humidity 72    
Precipitation  
Precipitation 0.24 in - - ()
Sea Level Pressure  
Sea Level Pressure 29.73 in    
Wind  
Wind Speed 9 mph (WNW)    
Max Wind Speed 15 mph    
Max Gust Speed 23 mph    
Visibility 9 miles    
Events Rain    
Averages and records for this station are not official NWS values.
T = Trace of Precipitation, MM = Missing Value Source: NWS Daily Summary

Daily Weather History Graph

Daily Weather History Graph

Search for Another Location

Airport:

Trip Planner

Search our weather history database for the weather conditions in past years. The results will help you decide how hot, cold, wet, or windy it might be!

Date:

Astronomy

Oct. 20, 2012 Rise Set
Actual Time 8:04 AM EDT 6:55 PM EDT
Civil Twilight 7:36 AM EDT 7:23 PM EDT
Nautical Twilight 7:03 AM EDT 7:56 PM EDT
Astronomical Twilight 6:31 AM EDT 8:28 PM EDT
Moon 1:43 PM EDT (10/20) 11:37 PM EDT (10/20)
Length of Visible Light 11h 47m
Length of Day
10h 50m
Waxing Crescent, 34% of the Moon is Illuminated
Oct 20
Waxing Crescent
Oct 21
First Quarter
Oct 29
Full
Nov 6
Last Quarter
Nov 13
New

Hourly Weather History & Observations

Time (EDT) Temp. Windchill Dew Point Humidity Pressure Visibility Wind Dir Wind Speed Gust Speed Precip Events Conditions
12:53 AM 48.0 °F - 45.0 °F 89% 29.60 in 3.0 mi WNW 8.1 mph - 0.07 in Rain Rain
1:43 AM 46.4 °F 41.9 °F 44.6 °F 93% 29.60 in 2.5 mi West 9.2 mph - 0.07 in Rain Light Rain
1:50 AM 46.4 °F 44.3 °F 44.6 °F 93% 29.60 in 8.0 mi West 4.6 mph - 0.08 in Rain Light Rain
1:53 AM 46.9 °F - 45.0 °F 93% 29.61 in 10.0 mi WSW 6.9 mph - 0.08 in Rain Light Rain
2:06 AM 48.2 °F - 44.6 °F 87% 29.59 in 5.0 mi WSW 11.5 mph 17.3 mph 0.03 in Rain Light Rain
2:48 AM 50.0 °F - 44.6 °F 82% 29.61 in 10.0 mi WNW 11.5 mph 19.6 mph 0.04 in   Overcast
2:53 AM 50.0 °F - 45.0 °F 83% 29.62 in 10.0 mi WNW 11.5 mph 20.7 mph 0.04 in   Overcast
3:30 AM 50.0 °F - 44.6 °F 82% 29.62 in 10.0 mi WNW 15.0 mph 20.7 mph N/A   Overcast
3:53 AM 50.0 °F - 45.0 °F 83% 29.63 in 10.0 mi WNW 11.5 mph - 0.00 in   Overcast
4:53 AM 48.9 °F - 45.0 °F 86% 29.64 in 9.0 mi WNW 10.4 mph 19.6 mph N/A   Overcast
5:04 AM 48.2 °F - 44.6 °F 87% 29.64 in 8.0 mi WNW 12.7 mph 20.7 mph 0.00 in Rain Light Rain
5:22 AM 48.2 °F - 44.6 °F 87% 29.64 in 5.0 mi WNW 12.7 mph 17.3 mph 0.02 in Rain Light Rain
5:53 AM 50.0 °F - 44.1 °F 80% 29.65 in 10.0 mi West 13.8 mph 20.7 mph 0.02 in   Overcast
6:53 AM 50.0 °F - 45.0 °F 83% 29.67 in 10.0 mi WNW 10.4 mph 20.7 mph 0.03 in   Overcast
7:28 AM 50.0 °F - 44.6 °F 82% 29.67 in 10.0 mi WNW 12.7 mph 23.0 mph N/A   Mostly Cloudy
7:36 AM 50.0 °F - 46.4 °F 87% 29.68 in 10.0 mi WNW 11.5 mph - N/A   Overcast
7:46 AM 50.0 °F - 44.6 °F 82% 29.68 in 10.0 mi WNW 9.2 mph 16.1 mph N/A   Overcast
7:53 AM 50.0 °F - 46.0 °F 86% 29.69 in 10.0 mi WNW 8.1 mph - N/A   Overcast
8:53 AM 50.0 °F - 45.0 °F 83% 29.71 in 10.0 mi WNW 10.4 mph - N/A   Overcast
9:28 AM 50.0 °F - 44.6 °F 82% 29.72 in 10.0 mi West 12.7 mph 20.7 mph N/A   Overcast
9:53 AM 51.1 °F - 46.0 °F 83% 29.74 in 10.0 mi WNW 9.2 mph 18.4 mph N/A   Overcast
10:39 AM 51.8 °F - 46.4 °F 82% 29.75 in 10.0 mi West 13.8 mph 19.6 mph N/A   Overcast
10:53 AM 51.1 °F - 46.0 °F 83% 29.76 in 10.0 mi WNW 15.0 mph 20.7 mph N/A   Overcast
11:53 AM 52.0 °F - 46.0 °F 80% 29.77 in 10.0 mi West 12.7 mph - N/A   Overcast
12:33 PM 51.8 °F - 46.4 °F 82% 29.78 in 10.0 mi West 13.8 mph 21.9 mph N/A   Overcast
12:45 PM 51.8 °F - 46.4 °F 82% 29.78 in 10.0 mi West 15.0 mph 20.7 mph N/A   Overcast
12:53 PM 52.0 °F - 46.0 °F 80% 29.79 in 10.0 mi West 13.8 mph 20.7 mph N/A   Overcast
1:53 PM 51.1 °F - 45.0 °F 80% 29.81 in 10.0 mi WNW 10.4 mph - N/A   Overcast
2:53 PM 52.0 °F - 46.9 °F 83% 29.81 in 10.0 mi WNW 9.2 mph - N/A   Overcast
3:53 PM 53.1 °F - 46.9 °F 80% 29.82 in 10.0 mi West 8.1 mph - N/A   Overcast
4:49 PM 53.6 °F - 44.6 °F 72% 29.83 in 10.0 mi WNW 6.9 mph - N/A   Scattered Clouds
4:53 PM 53.1 °F - 45.0 °F 74% 29.83 in 10.0 mi WNW 9.2 mph - N/A   Scattered Clouds
5:53 PM 52.0 °F - 46.0 °F 80% 29.85 in 10.0 mi West 5.8 mph - N/A   Overcast
6:53 PM 51.1 °F - 46.0 °F 83% 29.87 in 10.0 mi Calm Calm - N/A   Overcast
7:53 PM 48.9 °F - 46.9 °F 93% 29.87 in 10.0 mi Calm Calm - N/A   Overcast
8:53 PM 48.9 °F - 46.9 °F 93% 29.89 in 9.0 mi Calm Calm - N/A   Overcast
9:53 PM 48.0 °F - 46.9 °F 96% 29.90 in 5.0 mi Calm Calm - N/A   Overcast
10:53 PM 50.0 °F - 46.0 °F 86% 29.92 in 10.0 mi Calm Calm - N/A   Overcast
11:53 PM 48.9 °F - 46.0 °F 90% 29.91 in 10.0 mi Calm Calm - N/A   Overcast